Regional Weather Roundup
Issued by NWS

Home | Current Version | Previous Version | Text Only | Print | Product List | Glossary Off
Versions: 1 2 3 4 5 6 7 8 9 10 11 12 13 14 15 16 17 18 19 20 21 22 23 24 25 26 27 28 29 30 31 32 33 34 35 36 37 38 39 40 41 42 43 44 45 46 47 48 49 50

000
ASUS43 KOAX 100002
RWRNE

WEATHER ROUNDUP FOR NEBRASKA
NATIONAL WEATHER SERVICE OMAHA NE
600 PM CST FRI DEC 09 2016

NOTES: SATELLITE DATA IS BEING USED TO AUGMENT CLOUD COVER ABOVE
       12000 FEET.
       "FAIR" INDICATES FEW OR NO CLOUDS BELOW 12,000 FEET WITH NO
       SIGNIFICANT WEATHER AND/OR OBSTRUCTIONS TO VISIBILITY.

  * THESE STATIONS DO NOT REPORT WEATHER SUCH AS RAIN...SNOW OR FOG.

NEZ001>004-019>022-054>056-100100-
NEBRASKA PANHANDLE

CITY           SKY/WX    TMP DP  RH WIND       PRES   REMARKS
SCOTTSBLUFF    CLOUDY    19   9  65 E9        30.21R WCI   8
6HR MIN TEMP:  19; 6HR MAX TEMP:  28;

ALLIANCE       CLOUDY    10   2  69 N13       30.23R WCI  -5
6HR MIN TEMP:  10; 6HR MAX TEMP:  23;

CHADRON        CLOUDY     5  -1  76 NE7       30.31F WCI  -7
6HR MIN TEMP:   5; 6HR MAX TEMP:  10;

KIMBALL        CLOUDY    20  16  84 E5        30.15R WCI  13
SIDNEY         CLOUDY    18  10  71 E7        30.19R WCI   9
6HR MIN TEMP:  18; 6HR MAX TEMP:  31;

$$

NEZ057>060-069>072-079>082-100100-
SOUTHWEST NEBRASKA

CITY           SKY/WX    TMP DP  RH WIND       PRES   REMARKS
NORTH PLATTE   CLOUDY    19  11  70 NE5       30.30R WCI  12
6HR MIN TEMP:  18; 6HR MAX TEMP:  29;

IMPERIAL       CLOUDY    26  18  71 N6        30.24R WCI  19
6HR MIN TEMP:  21; 6HR MAX TEMP:  33;

LEXINGTON      CLOUDY    22  13  68 SE6       30.33R WCI  15
MCCOOK         CLEAR     21  13  71 E7        30.29R WCI  12
6HR MIN TEMP:  21; 6HR MAX TEMP:  31;

OGALLALA       CLOUDY    18  12  76 NE5       30.25R WCI  11
$$

NEZ005>010-023>029-035>040-094-100100-
NORTH CENTRAL NEBRASKA

CITY           SKY/WX    TMP DP  RH WIND       PRES   REMARKS
VALENTINE      CLOUDY     9   4  80 N14       30.38R WCI  -7
6HR MIN TEMP:   9; 6HR MAX TEMP:  24; 6HR PCP: TRACE;

AINSWORTH      CLEAR     11   8  88 NE9       30.35R WCI  -1
BROKEN BOW     CLOUDY    20  12  71 SE5       30.32S WCI  13
6HR MIN TEMP:  18; 6HR MAX TEMP:  25;

O`NEILL        FLURRIES  19  11  74 CALM      30.42R
THEDFORD       CLOUDY    19   9  64 CALM      30.29R
$$

NEZ041-046>049-061>064-073>077-083>087-100100-
SOUTH CENTRAL NEBRASKA

CITY           SKY/WX    TMP DP  RH WIND       PRES   REMARKS
GRAND ISLAND   CLOUDY    22  12  65 S8        30.42R WCI  12
6HR MIN TEMP:  18; 6HR MAX TEMP:  22;

AURORA         CLOUDY    22  11  62 S7        30.42R WCI  14
HASTINGS       PTCLDY    21  12  68 S7        30.41R WCI  12
6HR MIN TEMP:  20; 6HR MAX TEMP:  23;

HEBRON         CLOUDY    24  14  65 S7        30.46R WCI  16
HOLDREGE       CLEAR     16  10  77 SE8       30.34S WCI   5
KEARNEY *      CLEAR     18   9  68 SE6       30.38R WCI   9
YORK           CLOUDY    23  12  63 S7        30.45R WCI  15
$$

NEZ011>018-030>034-042>045-100100-
NORTHEAST NEBRASKA

CITY           SKY/WX    TMP DP  RH WIND       PRES   REMARKS
NORFOLK        CLOUDY    18   9  68 SE5       30.46R WCI  11
6HR MIN TEMP:  12; 6HR MAX TEMP:  18;

ALBION         CLOUDY    20  11  67 SE6       30.44R WCI  12
BLAIR          CLOUDY    20  11  68 E5        30.48S WCI  14
FREMONT        CLOUDY    20  11  68 E8        30.49S WCI  10
TEKAMAH        CLOUDY    19   9  65 E3        30.52S
6HR MIN TEMP:  14; 6HR MAX TEMP:  19;

WAYNE          FLURRIES  17  10  74 SE6       30.48R WCI   9
$$

NEZ050>053-065>068-078-088>093-100100-
SOUTHEAST NEBRASKA

CITY           SKY/WX    TMP DP  RH WIND       PRES   REMARKS
LINCOLN        CLOUDY    23  13  65 SE8       30.50R WCI  14
6HR MIN TEMP:  18; 6HR MAX TEMP:  23;

OMAHA EPPLEY   CLOUDY    22   9  57 SE7       30.52S WCI  13
6HR MIN TEMP:  18; 6HR MAX TEMP:  22;

BEATRICE       CLOUDY    24  12  60 SE7       30.47S WCI  16
FALLS CITY     CLOUDY    25  12  58 SE6       30.51S WCI  18
6HR MIN TEMP:  19; 6HR MAX TEMP:  26;

NEBRASKA CITY  CLOUDY    22  10  60 SE6       30.50S WCI  15
PLATTSMOUTH    CLOUDY    22   8  55 SE7       30.50S WCI  13
$$

NEZ044-045-051>053-067-100100-
OMAHA AREA

CITY           SKY/WX    TMP DP  RH WIND       PRES   REMARKS
OMAHA EPPLEY   CLOUDY    22   9  57 SE7       30.52S WCI  13
6HR MIN TEMP:  18; 6HR MAX TEMP:  22;

BLAIR          CLOUDY    20  11  68 E5        30.48S WCI  14
FREMONT        CLOUDY    20  11  68 E8        30.49S WCI  10
MILLARD        CLOUDY    24  12  61 CALM      30.51R
OFFUTT AFB     CLOUDY    22  12  66 E7        30.51S WCI  13
PLATTSMOUTH    CLOUDY    22   8  55 SE7       30.50S WCI  13
WAHOO          CLOUDY    22  12  65 SE8       30.49S WCI  12
$$




USA.gov is the U.S. government's official web portal to all federal, state and local government web resources and services.